TimeEDT,TemperatureF,Dew PointF,Humidity,Sea Level PressureIn,VisibilityMPH,Wind Direction,Wind SpeedMPH,Gust SpeedMPH,PrecipitationIn,Events,Conditions,WindDirDegrees,DateUTC
12:15 AM,60.8,55.4,82,29.97,2.0,Calm,Calm,-,N/A,,Clear,0,2013-10-17 04:15:00
12:35 AM,60.8,57.2,88,29.97,7.0,West,3.5,-,N/A,,Clear,270,2013-10-17 04:35:00
12:55 AM,60.8,57.2,88,29.98,7.0,Calm,Calm,-,N/A,,Clear,0,2013-10-17 04:55:00
1:15 AM,60.8,57.2,88,29.98,9.0,Calm,Calm,-,N/A,,Clear,0,2013-10-17 05:15:00
1:35 AM,59.0,55.4,88,29.97,8.0,Calm,Calm,-,N/A,,Clear,0,2013-10-17 05:35:00
1:55 AM,59.0,55.4,88,29.96,4.0,Calm,Calm,-,N/A,,Clear,0,2013-10-17 05:55:00
2:15 AM,57.2,55.4,94,29.97,1.2,Calm,Calm,-,N/A,,Clear,0,2013-10-17 06:15:00
2:35 AM,57.2,55.4,94,29.96,5.0,Calm,Calm,-,N/A,,Clear,0,2013-10-17 06:35:00
2:55 AM,57.2,53.6,88,29.96,5.0,Calm,Calm,-,N/A,,Clear,0,2013-10-17 06:55:00
3:15 AM,57.2,55.4,94,29.95,8.0,Calm,Calm,-,N/A,,Clear,0,2013-10-17 07:15:00
3:35 AM,57.2,53.6,88,29.95,1.2,Calm,Calm,-,N/A,,Clear,0,2013-10-17 07:35:00
3:55 AM,57.2,53.6,88,29.94,1.2,Calm,Calm,-,N/A,,Clear,0,2013-10-17 07:55:00
4:15 AM,57.2,53.6,88,29.94,7.0,Calm,Calm,-,N/A,,Clear,0,2013-10-17 08:15:00
4:35 AM,57.2,53.6,88,29.94,9.0,Calm,Calm,-,N/A,,Clear,0,2013-10-17 08:35:00
4:55 AM,57.2,53.6,88,29.94,0.8,Calm,Calm,-,N/A,,Unknown,0,2013-10-17 08:55:00
5:15 AM,55.4,53.6,94,29.94,0.5,Calm,Calm,-,N/A,,Unknown,0,2013-10-17 09:15:00
5:35 AM,55.4,53.6,94,29.95,6.0,Calm,Calm,-,N/A,,Clear,0,2013-10-17 09:35:00
5:55 AM,55.4,51.8,88,29.95,7.0,Calm,Calm,-,N/A,,Clear,0,2013-10-17 09:55:00
6:15 AM,55.4,51.8,88,29.95,1.8,Calm,Calm,-,N/A,,Clear,0,2013-10-17 10:15:00
6:35 AM,55.4,53.6,94,29.95,7.0,Calm,Calm,-,N/A,,Clear,0,2013-10-17 10:35:00
6:55 AM,55.4,51.8,88,29.96,6.0,Calm,Calm,-,N/A,,Clear,0,2013-10-17 10:55:00
7:15 AM,55.4,53.6,94,29.96,5.0,Calm,Calm,-,N/A,,Clear,0,2013-10-17 11:15:00
7:35 AM,55.4,53.6,94,29.97,5.0,Calm,Calm,-,N/A,,Clear,0,2013-10-17 11:35:00
7:55 AM,57.2,55.4,94,29.96,6.0,Calm,Calm,-,N/A,,Clear,0,2013-10-17 11:55:00
8:15 AM,60.8,55.4,82,29.97,5.0,Calm,Calm,-,N/A,,Clear,0,2013-10-17 12:15:00
8:35 AM,60.8,57.2,88,29.98,4.0,Calm,Calm,-,N/A,,Clear,0,2013-10-17 12:35:00
8:55 AM,62.6,59.0,88,29.98,5.0,West,3.5,-,N/A,,Clear,260,2013-10-17 12:55:00
9:15 AM,64.4,60.8,88,29.98,9.0,Calm,Calm,-,N/A,,Clear,0,2013-10-17 13:15:00
9:35 AM,64.4,60.8,88,29.98,10.0,WSW,3.5,-,N/A,,Clear,240,2013-10-17 13:35:00
9:55 AM,66.2,60.8,83,29.99,10.0,WSW,4.6,-,N/A,,Clear,250,2013-10-17 13:55:00
10:15 AM,68.0,60.8,78,29.99,10.0,WSW,4.6,-,N/A,,Clear,250,2013-10-17 14:15:00
10:35 AM,69.8,60.8,73,29.98,10.0,WSW,6.9,-,N/A,,Clear,250,2013-10-17 14:35:00
10:55 AM,71.6,62.6,73,29.98,10.0,WSW,3.5,-,N/A,,Clear,250,2013-10-17 14:55:00
11:15 AM,73.4,62.6,69,29.98,10.0,WSW,8.1,-,N/A,,Clear,250,2013-10-17 15:15:00
11:35 AM,73.4,62.6,69,29.97,10.0,WSW,4.6,-,N/A,,Clear,240,2013-10-17 15:35:00
11:55 AM,75.2,62.6,65,29.97,10.0,WSW,5.8,-,N/A,,Clear,250,2013-10-17 15:55:00
12:15 PM,77.0,62.6,61,29.96,10.0,WSW,5.8,-,N/A,,Clear,240,2013-10-17 16:15:00
12:35 PM,78.8,62.6,57,29.96,10.0,SW,6.9,-,N/A,,Clear,220,2013-10-17 16:35:00
12:55 PM,78.8,62.6,57,29.95,10.0,SW,5.8,-,N/A,,Clear,230,2013-10-17 16:55:00
1:15 PM,78.8,62.6,57,29.94,10.0,West,4.6,-,N/A,,Scattered Clouds,270,2013-10-17 17:15:00
1:35 PM,80.6,62.6,54,29.93,10.0,SW,9.2,-,N/A,,Scattered Clouds,230,2013-10-17 17:35:00
1:55 PM,80.6,62.6,54,29.92,10.0,WSW,8.1,-,N/A,,Mostly Cloudy,250,2013-10-17 17:55:00
2:15 PM,80.6,62.6,54,29.91,10.0,SW,9.2,-,N/A,,Overcast,220,2013-10-17 18:15:00
2:35 PM,78.8,62.6,57,29.90,10.0,SW,8.1,-,N/A,,Mostly Cloudy,220,2013-10-17 18:35:00
2:55 PM,78.8,62.6,57,29.90,10.0,SW,4.6,-,N/A,,Scattered Clouds,230,2013-10-17 18:55:00
3:15 PM,78.8,62.6,57,29.90,10.0,SSW,5.8,-,N/A,,Scattered Clouds,210,2013-10-17 19:15:00
3:35 PM,78.8,62.6,57,29.89,10.0,SW,5.8,-,N/A,,Scattered Clouds,230,2013-10-17 19:35:00
3:55 PM,78.8,62.6,57,29.89,10.0,WSW,4.6,-,N/A,,Overcast,250,2013-10-17 19:55:00
4:15 PM,78.8,62.6,57,29.89,10.0,WSW,5.8,-,N/A,,Mostly Cloudy,240,2013-10-17 20:15:00
4:35 PM,78.8,62.6,57,29.88,10.0,SW,8.1,-,N/A,,Partly Cloudy,220,2013-10-17 20:35:00
4:55 PM,78.8,62.6,57,29.88,10.0,South,8.1,-,N/A,,Partly Cloudy,190,2013-10-17 20:55:00
5:15 PM,78.8,62.6,57,29.88,10.0,SW,6.9,-,N/A,,Clear,220,2013-10-17 21:15:00
5:35 PM,78.8,62.6,57,29.88,10.0,South,8.1,-,N/A,,Scattered Clouds,190,2013-10-17 21:35:00
5:55 PM,75.2,64.4,69,29.88,10.0,South,8.1,-,N/A,,Scattered Clouds,180,2013-10-17 21:55:00
6:15 PM,73.4,62.6,69,29.89,10.0,South,9.2,-,N/A,,Partly Cloudy,190,2013-10-17 22:15:00
6:35 PM,71.6,62.6,73,29.89,10.0,South,6.9,-,N/A,,Clear,180,2013-10-17 22:35:00
6:55 PM,71.6,62.6,73,29.89,10.0,South,4.6,-,N/A,,Clear,180,2013-10-17 22:55:00
7:15 PM,69.8,62.6,78,29.89,10.0,South,4.6,-,N/A,,Clear,190,2013-10-17 23:15:00
7:35 PM,69.8,62.6,78,29.89,10.0,South,4.6,-,N/A,,Clear,180,2013-10-17 23:35:00
7:55 PM,68.0,62.6,83,29.90,10.0,South,6.9,-,N/A,,Clear,180,2013-10-17 23:55:00
8:15 PM,68.0,62.6,83,29.90,10.0,South,6.9,-,N/A,,Clear,190,2013-10-18 00:15:00
8:35 PM,68.0,62.6,83,29.91,10.0,South,6.9,-,N/A,,Clear,190,2013-10-18 00:35:00
8:55 PM,68.0,62.6,83,29.91,10.0,SSW,6.9,-,N/A,,Clear,200,2013-10-18 00:55:00
9:15 PM,66.2,62.6,88,29.92,10.0,SSW,6.9,-,N/A,,Clear,210,2013-10-18 01:15:00
9:35 PM,66.2,62.6,88,29.91,10.0,SSW,8.1,-,N/A,,Clear,200,2013-10-18 01:35:00
9:55 PM,66.2,62.6,88,29.91,10.0,SSW,6.9,-,N/A,,Partly Cloudy,200,2013-10-18 01:55:00
10:15 PM,66.2,62.6,88,29.91,10.0,SSW,6.9,-,N/A,,Mostly Cloudy,200,2013-10-18 02:15:00
10:35 PM,66.2,62.6,88,29.91,10.0,SSW,8.1,-,N/A,,Overcast,210,2013-10-18 02:35:00
10:55 PM,68.0,62.6,83,29.91,10.0,SSW,10.4,-,N/A,,Overcast,200,2013-10-18 02:55:00
11:15 PM,68.0,62.6,83,29.91,10.0,SSW,8.1,-,N/A,,Mostly Cloudy,210,2013-10-18 03:15:00
11:35 PM,68.0,62.6,83,29.91,10.0,SSW,8.1,-,N/A,,Mostly Cloudy,210,2013-10-18 03:35:00
11:55 PM,68.0,62.6,83,29.91,10.0,SSW,6.9,-,N/A,,Mostly Cloudy,210,2013-10-18 03:55:00